370  
ASHW40 PHFO 210944  
RWRHI  
 
WEATHER ROUNDUP FOR HAWAII  
NATIONAL WEATHER SERVICE HONOLULU HI  
1100 PM HST MON FEB 20 2017  
 
THIS IS AN AUTOMATED REPORT THAT HAS NOT BEEN QUALITY CONTROLLED.  
 
NOTE..."FAIR" INDICATES FEW OR NO CLOUDS BELOW 12,000 FEET WITH NO  
SIGNIFICANT WEATHER AND/OR S TO VISIBILITY
.  
 
* - THESE SITES REPORT LIMITED FIELDS  
 
HIZ001>004-211000-  
KAUAI-NIIHAU-  
 
CITY SKY/WX TMP DP RH WIND PRES REMARKS
 
LIHUE APT MOCLDY 71 55 56 NE15 30.28R  
PORT ALLEN* N/A 68 N/A N/A NE10 N/A  
POIPU* N/A 72 N/A N/A NE8G17 N/A  
PRINCEVILLE* N/A 68 N/A N/A SE3 N/A  
KOKOLE POINT* NOT AVBL  
MOLOAA DAIRY* N/A 70 54 56 E6G13 N/A  
WAIMEA HTS* N/A 64 54 68 NE5 N/A  
PUU OPAE* NOT AVBL  
PUU LUA* NOT AVBL  
MAKAHA RIDGE* N/A 61 50 67 E3 N/A  

 
 
HIZ005>011-211000-  
OAHU-  
 
CITY SKY/WX TMP DP RH WIND PRES REMARKS
 
HONOLULU PTCLDY 72 57 59 NE20 30.23F  
KALAELOA CLEAR 70 58 65 E8 30.24F  
KANEOHE MCB CLOUDY 73 61 65 E14G25 30.23S  
WHEELER FIELD FAIR 63 57 82 CALM 30.23  
BELLOWS* N/A N/A N/A N/A NE23 N/A  
KAHUKU* N/A N/A N/A N/A NE10G20 N/A  
WHEELER* N/A N/A N/A N/A S2 N/A  
WAIANAE HARBOR N/A N/A N/A N/A NE5G10 N/A  
DILLINGHAM* NOT AVBL  
KAHUKU TRN* N/A 75 64 69 W10G25 N/A  
KAWAILOA* N/A 64 57 77 E16G26 N/A  
KII* N/A 72 61 68 E22G29 N/A  
MAKUA RANGE* N/A 70 57 64 W9G15 N/A  
OAHU FOREST NW N/A 63 55 77 CALM N/A  
SCHOFIELD BRK* N/A 73 72 94 MISG N/A  
SCHOFIELD S* NOT AVBL  
WAIANAE VLY* N/A 66 55 68 VRB7G21 N/A  
KUAOKALA* N/A 66 -2 6 NE14G23 N/A  
HONOULIUULI* NOT AVBL  
MOKUOLOE IS* NOT AVBL  
PALEHUA* N/A 59 55 88 NE12G26 N/A  
WAIAWA PHB* NOT AVBL  

 
 
HIZ012>013-211000-  
MOLOKAI-  
 
CITY SKY/WX TMP DP RH WIND PRES REMARKS
 
MOLOKAI AIRPT CLEAR 71 58 63 NE13G25 30.23F  
KALAUPAPA NOT AVBL  
MAKAPULAPAI* N/A 72 57 60 E18G26 N/A  
MOLOKAI 1* N/A 59 52 77 NE8 N/A  
PUU ALII* N/A 52 51 98 N3G12 N/A  

 
 
HIZ016-211000-  
KAHOOLAWE-  
 
CITY SKY/WX TMP DP RH WIND PRES REMARKS
 
KAHOOLAWE* NOT AVBL  
HAKIOAWA* N/A 64 59 85 MISG 30.63F  
HONOKANAIA* N/A 70 58 66 N8G20 30.17R  
KANELOA* N/A 68 59 73 E18G30 30.28R  
KEALIALALO* NOT AVBL  
LUA MAKIKA* NOT AVBL  

 
 
HIZ014>015-211000-  
LANAI-  
 
CITY SKY/WX TMP DP RH WIND PRES REMARKS
 
LANAI CITY N/A 64 58 80 NE14 30.25F  
LANAI 1* NOT AVBL  

 
 
HIZ017>028-211000-  
MAUI-  
 
CITY SKY/WX TMP DP RH WIND PRES REMARKS
 
KAHULUI MOCLDY 72 59 63 NE16 30.24F  
KAPALUA-W MAUI NOT AVBL  
HANA AIRPORT CLOUDY 70 59 68 SE3 30.29S  
HANA* N/A 72 N/A N/A E10G20 N/A  
HALEAKALA SUMM N/A 37 18 44 SE8G20 N/A  
MAALAEA BAY* N/A 72 N/A N/A N18G32 N/A  
HALEAKALA* NOT AVBL  
KAUPO GAP* N/A 70 57 64 W20G28 N/A  
KULA 1* N/A N/A N/A N/A N2 N/A  

 
 
HIZ023>026-211000-  
BIG ISLAND OF HAWAII COAST AND LOWER SLOPES-  
 
CITY SKY/WX TMP DP RH WIND PRES REMARKS
 
KAILUA KONA CLEAR 71 57 61 NE10 30.16R  
HILO PTCLDY 67 60 78 SW5 30.25F  
HONOKAA* N/A 64 N/A N/A VRB1 N/A  
KAWAIHAE MWT* N/A 72 N/A N/A SE2 N/A  
KAWAIHAE* N/A 72 N/A N/A E3 30.16F  
SOUTH POINT* N/A 66 N/A N/A N23G32 N/A  
UPOLU AIRPORT* NOT AVBL  
KAMUELA* PTSUNNY 57 54 88 NE25 30.27S  
HAKALAU* N/A 39 39 100 SW3 N/A  
KALOKO-HONOKO* N/A 72 61 68 E3 30.15S  
PALI 2* N/A 57 52 82 S21G35 N/A  
KEALAKOMO* N/A 72 57 60 VRB18G26 N/A  
KAUPULEHU* N/A 64 54 68 SE7 N/A  
KAPAPALA* N/A 54 53 95 NW6 N/A  
LOWER KAHUKU* N/A 54 54 100 N2G8 N/A  
PUHE CS* N/A 72 52 49 E3G9 N/A  
PUHO CS* N/A 72 59 64 E2 N/A  
PTA KEAMUKU* N/A 54 50 87 CALM N/A  
WAIKOLOA* N/A 66 55 68 E18G31 N/A  

 
 
HIZ027>028-211000-  
BIG ISLAND OF HAWAII INTERIOR AND SUMMMITS-  
 
CITY SKY/WX TMP DP RH WIND PRES REMARKS
 
BRADSHAW FIELD CLEAR 44 37 78 SE5 30.45S  
MK VISITOR CEN N/A 41 19 42 N9 N/A  
MAUNA KEA* N/A 25 -18 14 CALM N/A  
MAUNA LOA* N/A N/A N/A N/A MISG N/A  
MAUNA LOA 1* NOT AVBL  
PTA KIPUKA* N/A 46 34 61 E5 N/A  
PTA RANGE 17* N/A 52 43 71 E12G20 N/A  
PTA WEST* N/A 72 57 60 SE12G17 N/A  
NENE CABIN* N/A N/A N/A N/A NE3 N/A  
AHUMOA* N/A N/A N/A N/A E9 N/A  
PTA PORTABLE* NOT AVBL  
PUU MALI* N/A N/A N/A N/A S9 N/A  

 
 
HIC003-211000-  
NORTHWEST ISLANDS-  
 
CITY SKY/WX TMP DP RH WIND PRES REMARKS
 
MIDWAY ISLAND MOCLDY 64 57 77 NE14 30.26R  
MIDWAY NOS* N/A 64 N/A N/A MISG 30.24R  
FRENCH FRIGATE NOT AVBL  

 
 
PHZ110>124-180-211000-  
BUOY REPORTS  
 
STATION/POSITION TIME TEMP WIND PRES WAVE SWELL
 
AIR SEA DIR/SP/G HT/PER HT/DIR  
(UTC) (F) (DEG/KT/KT) (MB) (FT/S) (FT/D)  
BUOY 51001 0930 70 100/ 16/ 19 1025.8F  
BUOY 51101 0850 71 72 90/ 14/ 16 1026.6F 7/10 7/330  
BUOY 51100 NOT AVBL  
BUOY 51002 0930 76 60/ 21/ 27 1021.0R  
BUOY 51003 0850 75 77 60/ 16/ 19 1022.1R 10/12 8/330  
BUOY 51004 0850 77 50/ 23/ 27 1020.4S 13/13 10/340  
BARBERS PT BUOY NOT AVBL  
WAIMEA BAY BUOY 0902 75 N/A 8/13 5/330  
KAILUA BAY BUOY 0904 75 N/A 8/13 5/360  
LANAI BUOY 0915 77 N/A 3/12 2/310  
BARBERS PT 2 NOT AVBL  
PAUWELA MAUI 0909 75 N/A 10/13 7/330  
HILO 0912 77 N/A 9/13 5/330  
KANEOHE BAY BUOY 0906 76 N/A 8/13 5/360  
HANALEI KAUAI 0922 75 N/A 8/12 5/340  
KAHULUI HARBOR 0912 73 75 50/ 13/ 22 1024.0  
HONOLULU HARBOR 0912 72 76 60/ 7/ 11 1024.5  
KILO NALU NOT AVBL  
HILO HARBOR 0912 70 75 270/ 4/ 8 1024.2  
MOKUOLOE 0836 72 75 80/ 13/ 20 1024.4F  
NAWILIWILI 0912 72 76 50/ 11/ 13 1025.0  
WHOTS BUOY NOT AVBL  
BUOY 51028 NOT AVBL  

 
   
.....................KEY.....................................
 
 
SKY/WX - SKY CONDITIONS/PRESENT WEATHER  
TMP - TEMPERATURE IN FAHRENHEIT  
DWPT - DEWPOINT IN FAHRENHEIT  
RH - RELATIVE HUMIDITY IN PERCENT  
WIND - DIRECTION AND SPEED /MPH FOR ISLANDS...KTS FOR BUOYS/  
PRES - MEAN SEA LEVEL PRESSURE IN INCHES OF HG  
VSB - VISIBILITY IN MILES  
HX - HEAT INDEX  
WCI - WIND CHILL INDEX  
VRB - VARIABLE WIND DIRECTION  
N/A - NOT AVAILABLE  
 
 
CLICK HERE TO GO TO PREVIOUS BULLETINS.

The Nexlab HI Page Main Text Page